Orbital Elements at Epoch 2459000.5 (2020-May-31.0) TDB
Reference: JPL 16 (heliocentric ecliptic J2000)
Element | Value | Uncertainty (1-sigma) | Units |
e | .08162062900592815 | 4.7666e-08 | |
a | 2.658590959892019 | 2.5916e-08 | au |
q | 2.441595093476158 | 1.3334e-07 | au |
i | 9.202199618770363 | 7.1819e-06 | deg |
node | 320.2079835015255 | 3.013e-05 | deg |
peri | 69.36385944149266 | 5.358e-05 | deg |
M | 241.2247246924983 | 4.6641e-05 | deg |
tp | 2459522.895295688080 (2021-Nov-04.39529569) | 0.00020885 | TDB |
period | 1583.345573906922 4.33 | 2.3152e-05 6.339e-08 | d yr |
n | .2273666633062902 | 3.3246e-09 | deg/d |
Q | 2.87558682630788 | 2.8031e-08 | au |
|
| | Orbit Determination Parameters
Additional Information
|